Weather in Palana

Russia / Kamchatka Krai     59°04′58″N   159°57′04″E
temp.,
°C
wind,
m/s
gust,
m/s
humid.,
%
clouds,
%
prec.,
mm/h
press.,
hPa
HPBL,
m
28 february, sun
sun2800:00−18ene228024 0.0 102022
03:00−17ene2278100 0.0 102024
06:00−19ene337970 0.0 101923
09:00−17ne3379100 0.0 101827
12:00−13ne4483100 0.0 1016135
15:00−11nne5587100 0.0 1013197
18:00−13ne6887100 0.0 1010117
21:00−15ne5586100 0.0 100947
1 march, mon
mon100:00−15ne4585100 0.0 100650
03:00−17nne6791100 0.0 1003123
06:00−19nne5692100 0.0 1001180
09:00−21nne5793100 0.0 1000225
12:00−20nne5691100 0.0 999281
15:00−19nne5791100 0.0 998371
18:00−20nne5893100 0.0 999311
21:00−21nne4795100 0.0 1002188
2 march, tue
tue200:00−22nne1298100 0.1 100446
03:00−22ene2295100 0.0 100627
06:00−22e1195100 0.0 100826
09:00−21se1197100 0.1 101291
12:00−20ssw2290100 0.2 1015436
15:00−18sw3489100 0.3 1017578
18:00−18sw2397100 0.5 1019177
21:00−19sse2294100 0.1 102225
3 march, wed
wed300:00−20se2288100 0.1 102421
03:00−22ese227373 0.0 102520
06:00−17se339686 0.2 102533
09:00−16ese3384100 0.1 102422
12:00−11ene3576100 0.1 1019293
15:00−10ene61167100 0.0 1012731
18:00−10ene61679100 0.5 1001710
21:00−7e31581100 0.1 991596
4 march, thu
thu400:000ese183076100 0.6 978696
03:00−1ese82186100 1.0 967529
06:00+2sse61280100 1.2 963300
09:00−15ssw223190100 1.8 9721166
12:00−15sw172392100 2.6 9791421
15:00−15wsw192678100 0.4 9831817
18:00−16wsw162674100 0.4 9851636
21:00−16wsw13218399 0.1 9881162